Time,TemperatureF,DewpointF,PressureIn,WindDirection,WindDirectionDegrees,WindSpeedMPH,WindSpeedGustMPH,Humidity,HourlyPrecipIn,Conditions,Clouds,dailyrainin,SoftwareType,DateUTC
2013-03-06 00:01:00,25.9,24.7,29.92,North,355,2.0,13.0,95,0.00,,---,0.00,VWS V14.01,2013-03-06 05:01:00,
2013-03-06 00:16:00,25.8,24.6,29.93,NNE,22,10.0,12.0,95,0.00,,---,0.00,VWS V14.01,2013-03-06 05:16:00,
2013-03-06 00:31:00,25.7,24.5,29.93,North,5,4.0,10.0,95,0.00,,---,0.00,VWS V14.01,2013-03-06 05:31:00,
2013-03-06 00:46:00,25.6,24.4,29.94,North,350,4.0,11.0,95,0.00,,---,0.00,VWS V14.01,2013-03-06 05:46:00,
2013-03-06 01:01:00,25.5,24.3,29.95,North,355,5.0,11.0,95,0.00,,---,0.00,VWS V14.01,2013-03-06 06:01:00,
2013-03-06 01:16:00,25.4,24.2,29.95,NNE,12,5.0,10.0,95,0.00,,---,0.00,VWS V14.01,2013-03-06 06:16:00,
2013-03-06 01:31:00,25.4,24.2,29.96,North,360,6.0,8.0,95,0.00,,---,0.00,VWS V14.01,2013-03-06 06:31:00,
2013-03-06 01:46:00,25.5,24.3,29.97,NNE,15,4.0,10.0,95,0.00,,---,0.00,VWS V14.01,2013-03-06 06:46:00,
2013-03-06 02:01:00,25.4,24.2,29.97,North,351,5.0,8.0,95,0.00,,---,0.00,VWS V14.01,2013-03-06 07:01:00,
2013-03-06 02:16:00,25.4,24.2,29.98,North,5,5.0,8.0,95,0.00,,---,0.00,VWS V14.01,2013-03-06 07:16:00,
2013-03-06 02:31:00,25.4,24.2,29.98,NNW,343,5.0,7.0,95,0.00,,---,0.00,VWS V14.01,2013-03-06 07:31:00,
2013-03-06 02:46:00,25.5,24.3,29.98,NNW,348,4.0,8.0,95,0.00,,---,0.00,VWS V14.01,2013-03-06 07:46:00,
2013-03-06 03:01:00,25.6,24.4,29.99,NNE,15,2.0,7.0,95,0.00,,---,0.00,VWS V14.01,2013-03-06 08:01:00,
2013-03-06 03:16:00,25.8,24.3,29.99,North,360,7.0,7.0,94,0.00,,---,0.00,VWS V14.01,2013-03-06 08:16:00,
2013-03-06 03:31:00,26.0,24.5,30.00,North,355,3.0,9.0,94,0.00,,---,0.00,VWS V14.01,2013-03-06 08:31:00,
2013-03-06 03:46:00,25.9,24.4,30.00,North,351,2.0,10.0,94,0.00,,---,0.00,VWS V14.01,2013-03-06 08:46:00,
2013-03-06 04:01:00,26.0,24.3,30.01,NNW,336,7.0,9.0,93,0.00,,---,0.00,VWS V14.01,2013-03-06 09:01:00,
2013-03-06 04:16:00,26.0,24.3,30.01,NW,311,5.0,10.0,93,0.00,,---,0.00,VWS V14.01,2013-03-06 09:16:00,
2013-03-06 04:31:00,26.1,24.4,30.01,North,351,4.0,13.0,93,0.00,,---,0.00,VWS V14.01,2013-03-06 09:31:00,
2013-03-06 04:46:00,26.2,24.5,30.02,WNW,300,7.0,9.0,93,0.00,,---,0.00,VWS V14.01,2013-03-06 09:46:00,
2013-03-06 05:01:00,26.4,24.4,30.03,NW,313,5.0,11.0,92,0.00,,---,0.00,VWS V14.01,2013-03-06 10:01:00,
2013-03-06 05:16:00,26.6,24.6,30.04,NNW,344,4.0,10.0,92,0.00,,---,0.00,VWS V14.01,2013-03-06 10:16:00,
2013-03-06 05:31:00,26.7,24.7,30.05,North,350,5.0,14.0,92,0.00,,---,0.00,VWS V14.01,2013-03-06 10:31:00,
2013-03-06 05:46:00,26.8,24.8,30.06,North,9,6.0,15.0,92,0.00,,---,0.00,VWS V14.01,2013-03-06 10:46:00,
2013-03-06 06:01:00,26.8,24.8,30.07,North,355,7.0,12.0,92,0.00,,---,0.00,VWS V14.01,2013-03-06 11:01:00,
2013-03-06 06:16:00,26.9,24.9,30.08,NW,317,5.0,14.0,92,0.00,,---,0.00,VWS V14.01,2013-03-06 11:16:00,
2013-03-06 06:31:00,27.1,25.1,30.09,NW,313,4.0,10.0,92,0.00,,---,0.00,VWS V14.01,2013-03-06 11:31:00,
2013-03-06 06:46:00,27.3,25.5,30.10,North,355,6.0,12.0,93,0.00,,---,0.00,VWS V14.01,2013-03-06 11:46:00,
2013-03-06 07:01:00,27.6,25.8,30.11,North,355,4.0,11.0,93,0.00,,---,0.00,VWS V14.01,2013-03-06 12:01:00,
2013-03-06 07:16:00,27.8,26.0,30.11,NNE,26,3.0,10.0,93,0.00,,---,0.00,VWS V14.01,2013-03-06 12:16:00,
2013-03-06 07:31:00,28.0,26.0,30.11,North,5,3.0,12.0,92,0.00,,---,0.00,VWS V14.01,2013-03-06 12:31:00,
2013-03-06 07:46:00,28.2,26.2,30.13,NW,322,6.0,14.0,92,0.00,,---,0.00,VWS V14.01,2013-03-06 12:46:00,
2013-03-06 08:01:00,28.5,26.5,30.14,NW,317,4.0,15.0,92,0.00,,---,0.00,VWS V14.01,2013-03-06 13:01:00,
2013-03-06 08:16:00,28.7,26.7,30.14,NNW,343,3.0,14.0,92,0.00,,---,0.00,VWS V14.01,2013-03-06 13:16:00,
2013-03-06 08:31:00,28.9,26.9,30.15,NW,319,4.0,9.0,92,0.00,,---,0.00,VWS V14.01,2013-03-06 13:31:00,
2013-03-06 08:46:00,29.1,27.1,30.15,NNE,18,3.0,8.0,92,0.00,,---,0.00,VWS V14.01,2013-03-06 13:46:00,
2013-03-06 09:01:00,29.3,27.3,30.16,North,355,6.0,10.0,92,0.00,,---,0.00,VWS V14.01,2013-03-06 14:01:00,
2013-03-06 09:16:00,29.6,27.6,30.16,North,11,6.0,10.0,92,0.00,,---,0.00,VWS V14.01,2013-03-06 14:16:00,
2013-03-06 09:31:00,29.8,27.8,30.16,North,5,3.0,9.0,92,0.00,,---,0.00,VWS V14.01,2013-03-06 14:31:00,
2013-03-06 09:46:00,29.9,27.9,30.17,NNE,26,4.0,8.0,92,0.00,,---,0.00,VWS V14.01,2013-03-06 14:46:00,
2013-03-06 10:01:00,30.3,28.0,30.17,NW,321,5.0,9.0,91,0.00,,---,0.00,VWS V14.01,2013-03-06 15:01:00,
2013-03-06 10:16:00,30.9,28.6,30.18,NNE,27,3.0,9.0,91,0.00,,---,0.00,VWS V14.01,2013-03-06 15:16:00,
2013-03-06 10:31:00,31.2,28.3,30.18,NNW,327,4.0,9.0,89,0.00,,---,0.00,VWS V14.01,2013-03-06 15:31:00,
2013-03-06 10:46:00,31.4,28.3,30.19,NNW,336,2.0,9.0,88,0.00,,---,0.00,VWS V14.01,2013-03-06 15:46:00,
2013-03-06 11:01:00,31.9,28.5,30.19,NW,317,4.0,9.0,87,0.00,,---,0.00,VWS V14.01,2013-03-06 16:01:00,
2013-03-06 11:16:00,31.9,28.5,30.20,North,5,5.0,10.0,87,0.01,,---,0.01,VWS V14.01,2013-03-06 16:16:00,
2013-03-06 11:31:00,32.0,28.3,30.21,North,360,3.0,10.0,86,0.01,,---,0.01,VWS V14.01,2013-03-06 16:31:00,
2013-03-06 11:46:00,32.4,28.1,30.21,NNW,329,4.0,8.0,84,0.02,,---,0.02,VWS V14.01,2013-03-06 16:46:00,
2013-03-06 12:01:00,32.8,28.8,30.21,NW,315,2.0,8.0,85,0.03,,---,0.03,VWS V14.01,2013-03-06 17:01:00,
2013-03-06 12:16:00,32.9,28.6,30.22,North,11,3.0,8.0,84,0.03,,---,0.03,VWS V14.01,2013-03-06 17:16:00,
2013-03-06 12:31:00,32.8,28.5,30.22,NNE,26,4.0,8.0,84,0.03,,---,0.04,VWS V14.01,2013-03-06 17:31:00,
2013-03-06 12:46:00,32.8,28.5,30.22,NW,312,2.0,8.0,84,0.04,,---,0.05,VWS V14.01,2013-03-06 17:46:00,
2013-03-06 13:01:00,33.0,28.4,30.22,NNW,327,5.0,9.0,83,0.04,,---,0.06,VWS V14.01,2013-03-06 18:01:00,
2013-03-06 13:16:00,33.4,28.5,30.21,North,349,2.0,10.0,82,0.05,,---,0.08,VWS V14.01,2013-03-06 18:16:00,
2013-03-06 13:31:00,33.6,28.7,30.21,North,355,4.0,8.0,82,0.07,,---,0.10,VWS V14.01,2013-03-06 18:31:00,
2013-03-06 13:46:00,33.9,28.4,30.21,North,5,4.0,8.0,80,0.08,,---,0.12,VWS V14.01,2013-03-06 18:46:00,
2013-03-06 14:01:00,34.2,28.4,30.21,NNW,336,4.0,6.0,79,0.09,,---,0.14,VWS V14.01,2013-03-06 19:01:00,
2013-03-06 14:16:00,34.2,28.1,30.21,NW,316,1.0,7.0,78,0.10,,---,0.16,VWS V14.01,2013-03-06 19:16:00,
2013-03-06 14:31:00,34.8,28.6,30.21,North,355,3.0,6.0,78,0.09,,---,0.17,VWS V14.01,2013-03-06 19:31:00,
2013-03-06 14:46:00,34.7,27.9,30.21,NNW,346,5.0,8.0,76,0.09,,---,0.19,VWS V14.01,2013-03-06 19:46:00,
2013-03-06 15:01:00,34.6,28.1,30.22,NW,304,2.0,6.0,77,0.09,,---,0.21,VWS V14.01,2013-03-06 20:01:00,
2013-03-06 15:16:00,34.5,28.4,30.22,NNE,15,1.0,6.0,78,0.08,,---,0.22,VWS V14.01,2013-03-06 20:16:00,
2013-03-06 15:31:00,34.6,29.1,30.22,North,10,3.0,4.0,80,0.07,,---,0.23,VWS V14.01,2013-03-06 20:31:00,
2013-03-06 15:46:00,34.5,28.7,30.23,NNE,20,1.0,7.0,79,0.07,,---,0.24,VWS V14.01,2013-03-06 20:46:00,
2013-03-06 16:01:00,34.3,27.9,30.23,North,350,5.0,8.0,77,0.06,,---,0.25,VWS V14.01,2013-03-06 21:01:00,
2013-03-06 16:16:00,34.2,27.8,30.23,WNW,296,3.0,9.0,77,0.04,,---,0.25,VWS V14.01,2013-03-06 21:16:00,
2013-03-06 16:31:00,34.0,27.6,30.23,NW,308,2.0,9.0,77,0.04,,---,0.26,VWS V14.01,2013-03-06 21:31:00,
2013-03-06 16:46:00,34.0,28.2,30.24,NNW,327,2.0,7.0,79,0.03,,---,0.26,VWS V14.01,2013-03-06 21:46:00,
2013-03-06 17:01:00,33.9,27.8,30.24,North,355,1.0,7.0,78,0.03,,---,0.27,VWS V14.01,2013-03-06 22:01:00,
2013-03-06 17:16:00,33.9,28.1,30.24,NW,319,3.0,6.0,79,0.02,,---,0.27,VWS V14.01,2013-03-06 22:16:00,
2013-03-06 17:31:00,33.6,27.8,30.25,North,351,2.0,7.0,79,0.02,,---,0.27,VWS V14.01,2013-03-06 22:31:00,
2013-03-06 17:46:00,33.5,28.0,30.25,NNW,332,2.0,7.0,80,0.01,,---,0.27,VWS V14.01,2013-03-06 22:46:00,
2013-03-06 18:01:00,33.4,28.5,30.26,NW,316,1.0,5.0,82,0.01,,---,0.27,VWS V14.01,2013-03-06 23:01:00,
2013-03-06 18:16:00,33.0,28.1,30.26,NW,306,1.0,7.0,82,0.01,,---,0.28,VWS V14.01,2013-03-06 23:16:00,
2013-03-06 18:31:00,32.8,28.2,30.26,WNW,298,1.0,5.0,83,0.01,,---,0.28,VWS V14.01,2013-03-06 23:31:00,
2013-03-06 18:46:00,32.7,28.4,30.27,WNW,298,2.0,4.0,84,0.01,,---,0.28,VWS V14.01,2013-03-06 23:46:00,
2013-03-06 19:01:00,32.6,28.6,30.27,WNW,298,2.0,4.0,85,0.01,,---,0.28,VWS V14.01,2013-03-07 00:01:00,
2013-03-06 19:16:00,32.5,28.8,30.28,WNW,303,3.0,6.0,86,0.01,,---,0.28,VWS V14.01,2013-03-07 00:16:00,
2013-03-06 19:31:00,32.4,29.0,30.28,WNW,303,1.0,5.0,87,0.00,,---,0.28,VWS V14.01,2013-03-07 00:31:00,
2013-03-06 19:46:00,32.2,29.0,30.28,WNW,303,0.0,3.0,88,0.00,,---,0.28,VWS V14.01,2013-03-07 00:46:00,
2013-03-06 20:01:00,32.1,29.0,30.28,WNW,303,3.0,3.0,88,0.00,,---,0.28,VWS V14.01,2013-03-07 01:01:00,
2013-03-06 20:16:00,32.0,29.1,30.28,WNW,292,2.0,4.0,89,0.00,,---,0.28,VWS V14.01,2013-03-07 01:16:00,
2013-03-06 20:31:00,31.9,29.0,30.28,WNW,292,3.0,5.0,89,0.00,,---,0.28,VWS V14.01,2013-03-07 01:31:00,
2013-03-06 20:46:00,31.7,29.1,30.29,WNW,292,2.0,4.0,90,0.00,,---,0.28,VWS V14.01,2013-03-07 01:46:00,
2013-03-06 21:01:00,31.5,29.2,30.29,WNW,292,5.0,5.0,91,0.00,,---,0.28,VWS V14.01,2013-03-07 02:01:00,
2013-03-06 21:16:00,31.6,29.3,30.29,WNW,296,2.0,6.0,91,0.00,,---,0.28,VWS V14.01,2013-03-07 02:16:00,
2013-03-06 21:31:00,31.7,29.4,30.30,West,281,3.0,6.0,91,0.00,,---,0.28,VWS V14.01,2013-03-07 02:31:00,
2013-03-06 21:46:00,31.6,29.5,30.30,WNW,296,5.0,7.0,92,0.00,,---,0.28,VWS V14.01,2013-03-07 02:46:00,
2013-03-06 22:01:00,31.5,29.7,30.30,WNW,296,4.0,5.0,93,0.00,,---,0.28,VWS V14.01,2013-03-07 03:01:00,
2013-03-06 22:16:00,31.5,29.7,30.29,WNW,296,2.0,5.0,93,0.00,,---,0.28,VWS V14.01,2013-03-07 03:16:00,
2013-03-06 22:31:00,31.6,29.8,30.29,NNW,348,2.0,8.0,93,0.00,,---,0.28,VWS V14.01,2013-03-07 03:31:00,
2013-03-06 22:46:00,31.6,29.8,30.30,NW,311,3.0,7.0,93,0.00,,---,0.28,VWS V14.01,2013-03-07 03:46:00,
2013-03-06 23:01:00,31.6,29.8,30.30,NW,306,1.0,6.0,93,0.00,,---,0.28,VWS V14.01,2013-03-07 04:01:00,
2013-03-06 23:16:00,31.8,30.0,30.30,West,271,3.0,9.0,93,0.00,,---,0.28,VWS V14.01,2013-03-07 04:16:00,
2013-03-06 23:31:00,31.8,30.0,30.30,WNW,292,3.0,7.0,93,0.00,,---,0.28,VWS V14.01,2013-03-07 04:31:00,
2013-03-06 23:46:00,31.6,29.8,30.30,NW,317,3.0,8.0,93,0.00,,---,0.28,VWS V14.01,2013-03-07 04:46:00,